Location: Nasgenstadt
(48.2786°N, 9.7553°E)
Time: 19:54:16
(UTC+02:00)

ISS - Pass Details

Date: 29 March 2017
Orbit: 399 x 409 km, 51.6° (Epoch: 29 March)

Event Time Altitude Azimuth Distance (km) Brightness Sun altitude
Rises 21:39:53 0° 243° (WSW) 2,307 0.5 -18.6°
Reaches altitude 10° 21:41:57 10° 242° (WSW) 1,452 -0.6 -18.9°
Enters shadow 21:45:05 78° 191° (S) 417 -3.9 -19.4°
